FW6662 Weather Reports


Display with metric or nautical units.
time (UTC)temp
F
wind
direction
speed
MPH
gust
MPH
rain 1hr
in
rain 24hr
in
rain mn
in
humidity
%
barometer
mb
20260509201004 52 167 1.0 7.0 0.02 0.31 0.30 97 1009.9
20260509200504 52 171 1.0 6.0 0.02 0.31 0.30 98 1010.1
20260509200025 52 173 1.0 6.0 0.02 0.31 0.30 97 1010.1
20260509195504 52 176 3.0 10.0 0.03 0.31 0.30 98 1010.2
20260509195025 52 177 3.0 10.0 0.03 0.31 0.30 98 1010.0
20260509194504 52 173 3.0 7.0 0.02 0.30 0.29 98 1010.1
20260509194004 52 170 3.0 7.0 0.02 0.30 0.29 98 1010.3
20260509193525 52 170 3.0 12.0 0.02 0.30 0.29 98 1010.3
20260509193004 52 171 4.0 12.0 0.02 0.30 0.29 98 1010.5
20260509192525 52 170 4.0 10.0 0.03 0.30 0.29 98 1010.4
20260509192025 52 170 3.0 10.0 0.03 0.30 0.29 98 1010.6
20260509191504 52 172 3.0 7.0 0.03 0.30 0.29 98 1010.6
20260509191004 52 174 4.0 19.0 0.03 0.29 0.28 98 1010.6
20260509190504 52 174 4.0 19.0 0.03 0.29 0.28 98 1010.7
20260509190005 52 177 4.0 16.0 0.03 0.29 0.28 97 1010.7
20260509185504 52 181 4.0 13.0 0.02 0.28 0.27 98 1010.7
20260509185004 52 176 4.0 9.0 0.03 0.28 0.27 98 1010.7
20260509184504 52 170 4.0 16.0 0.03 0.28 0.27 98 1010.7
20260509184004 52 170 6.0 16.0 0.03 0.28 0.27 98 1010.7
20260509183504 52 170 6.0 13.0 0.03 0.28 0.27 98 1010.7
20260509183004 52 168 6.0 14.0 0.03 0.30 0.27 98 1010.8
20260509182504 52 167 4.0 14.0 0.02 0.29 0.26 97 1010.7
20260509182025 52 168 4.0 12.0 0.02 0.29 0.26 98 1010.7
20260509181504 52 169 4.0 12.0 0.02 0.29 0.26 98 1010.7
20260509181004 52 172 6.0 16.0 0.02 0.28 0.25 98 1010.6
20260509180504 52 181 6.0 16.0 0.02 0.28 0.25 98 1010.5
20260509180025 52 181 6.0 16.0 0.02 0.28 0.25 98 1010.5
20260509175504 52 179 6.0 16.0 0.02 0.28 0.25 98 1010.5
20260509175004 52 184 4.0 14.0 0.02 0.27 0.24 98 1010.5
20260509174504 52 189 4.0 13.0 0.02 0.27 0.24 98 1010.7
20260509174004 52 189 4.0 9.0 0.02 0.27 0.24 98 1010.7
20260509173504 52 192 4.0 9.0 0.03 0.27 0.24 98 1010.7
20260509173004 52 189 4.0 9.0 0.03 0.27 0.24 98 1010.8
20260509172504 52 181 4.0 9.0 0.04 0.27 0.24 98 1010.7
20260509172004 52 184 3.0 7.0 0.04 0.27 0.24 98 1010.7
20260509171504 51 184 4.0 9.0 0.04 0.27 0.24 98 1010.7
20260509171004 51 183 4.0 9.0 0.04 0.26 0.23 98 1010.7
20260509170504 51 184 3.0 7.0 0.04 0.27 0.23 98 1010.6
20260509170004 51 170 3.0 6.0 0.04 0.27 0.23 98 1010.6
20260509165525 51 171 3.0 7.0 0.04 0.28 0.23 98 1010.6
20260509165005 51 173 3.0 7.0 0.03 0.29 0.22 98 1010.6
20260509164525 51 175 3.0 12.0 0.03 0.30 0.22 98 1010.7
20260509164025 51 173 4.0 16.0 0.04 0.31 0.22 98 1010.8
20260509163504 51 166 3.0 14.0 0.03 0.31 0.21 98 1010.9
20260509163025 51 165 3.0 14.0 0.03 0.32 0.21 98 1010.9
20260509162504 51 168 1.0 9.0 0.02 0.31 0.20 98 1010.8
20260509162004 51 169 3.0 10.0 0.02 0.31 0.20 98 1010.9
20260509161504 51 164 3.0 10.0 0.03 0.31 0.20 98 1011.0
20260509161004 51 158 1.0 9.0 0.02 0.30 0.19 98 1011.0
20260509160504 51 161 1.0 7.0 0.02 0.30 0.19 98 1011.0
20260509160004 51 161 1.0 6.0 0.02 0.30 0.19 98 1011.0
20260509155504 51 167 1.0 6.0 0.02 0.30 0.19 98 1011.1
20260509155004 51 184 1.0 6.0 0.02 0.30 0.19 98 1011.1
20260509154525 51 175 1.0 4.0 0.03 0.30 0.19 98 1011.2
20260509154004 51 162 1.0 6.0 0.02 0.29 0.18 98 1011.2
20260509153504 51 169 3.0 10.0 0.02 0.29 0.18 98 1011.3
20260509153004 51 171 3.0 10.0 0.02 0.29 0.18 98 1011.3
20260509152504 51 171 1.0 7.0 0.02 0.29 0.18 98 1011.3
20260509152117 51 170 0.0 4.0 0.02 0.29 0.18 98 1011.3
20260509151504 51 165 1.0 6.0 0.02 0.28 0.17 98 1011.4
20260509151005 50 167 1.0 6.0 0.02 0.28 0.17 98 1011.4
20260509150504 50 171 3.0 7.0 0.02 0.28 0.17 98 1011.5
20260509150004 50 167 3.0 7.0 0.02 0.28 0.17 98 1011.6
20260509145504 50 164 1.0 6.0 0.02 0.28 0.17 98 1011.5
20260509145004 50 170 1.0 6.0 0.02 0.28 0.17 98 1011.5
20260509144504 50 177 1.0 3.0 0.01 0.27 0.16 98 1011.6
20260509144004 50 183 0.0 3.0 0.02 0.27 0.16 98 1011.7
20260509143504 50 192 0.0 1.0 0.02 0.27 0.16 98 1011.7
20260509143004 50 0 0.0 0.0 0.02 0.27 0.16 98 1011.8
20260509142504 50 0 0.0 0.0 0.02 0.27 0.16 98 1011.7
20260509142004 49 0 0.0 0.0 0.02 0.27 0.16 98 1011.6
20260509141504 49 0 0.0 0.0 0.01 0.26 0.15 98 1011.6
20260509141004 49 0 0.0 0.0 0.01 0.26 0.15 98 1011.6
20260509140504 49 0 0.0 0.0 0.01 0.26 0.15 98 1011.5
20260509140005 49 0 0.0 0.0 0.02 0.26 0.15 98 1011.5
20260509135504 49 0 0.0 0.0 0.02 0.26 0.15 98 1011.6
20260509135004 49 0 0.0 0.0 0.02 0.26 0.15 98 1011.6
20260509134504 49 0 0.0 0.0 0.03 0.26 0.15 98 1011.6
20260509134025 49 0 0.0 0.0 0.02 0.25 0.14 98 1011.4
20260509133504 49 0 0.0 0.0 0.02 0.25 0.14 98 1011.4
20260509133025 49 248 0.0 1.0 0.03 0.25 0.14 98 1011.5
20260509132504 49 248 0.0 1.0 0.03 0.25 0.14 98 1011.3
20260509132004 49 248 0.0 1.0 0.03 0.25 0.14 98 1011.3
20260509131504 49 248 0.0 1.0 0.03 0.25 0.14 98 1011.3
20260509131025 49 248 0.0 1.0 0.03 0.25 0.14 98 1011.2
20260509130504 49 0 0.0 0.0 0.03 0.25 0.14 98 1011.1
20260509130004 49 0 0.0 0.0 0.02 0.24 0.13 98 1011.2
20260509125504 49 0 0.0 0.0 0.02 0.24 0.13 98 1011.3
20260509125004 49 0 0.0 0.0 0.02 0.24 0.13 98 1011.3
20260509124503 49 0 0.0 0.0 0.01 0.23 0.12 98 1011.4
20260509124004 49 248 0.0 1.0 0.01 0.23 0.12 98 1011.4
20260509123504 48 248 0.0 1.0 0.01 0.23 0.12 98 1011.4
20260509123004 48 0 0.0 0.0 0.00 0.22 0.11 98 1011.4
20260509122504 48 0 0.0 0.0 0.00 0.22 0.11 98 1011.4
20260509122004 48 0 0.0 0.0 0.00 0.22 0.11 98 1011.4
20260509121503 48 0 0.0 0.0 0.00 0.22 0.11 98 1011.4
20260509121025 48 0 0.0 0.0 0.00 0.22 0.11 98 1011.4
20260509120503 48 0 0.0 0.0 0.00 0.22 0.11 98 1011.4
20260509120004 48 0 0.0 0.0 0.00 0.22 0.11 98 1011.4
20260509115503 48 0 0.0 0.0 0.00 0.22 0.11 98 1011.5
20260509115004 48 0 0.0 0.0 0.00 0.22 0.11 98 1011.5
20260509114504 48 0 0.0 0.0 0.00 0.22 0.11 98 1011.5
20260509114004 48 0 0.0 0.0 0.00 0.22 0.11 98 1011.6
20260509113503 48 0 0.0 0.0 0.00 0.22 0.11 98 1011.6
20260509113004 48 248 0.0 1.0 0.00 0.22 0.11 98 1011.4
20260509112503 48 248 0.0 1.0 0.00 0.22 0.11 98 1011.5
20260509112003 48 248 0.0 3.0 0.00 0.22 0.11 98 1011.5
20260509111503 48 248 0.0 3.0 0.00 0.22 0.11 98 1011.8
20260509111003 47 0 0.0 0.0 0.01 0.22 0.11 98 1011.6
20260509110503 47 0 0.0 0.0 0.01 0.22 0.11 98 1011.8
20260509110004 47 248 0.0 1.0 0.01 0.22 0.11 98 1011.7
20260509105504 47 248 0.0 1.0 0.01 0.22 0.11 98 1011.6
20260509105004 47 247 0.0 1.0 0.01 0.22 0.11 98 1011.6
20260509104524 47 202 0.0 3.0 0.01 0.22 0.11 98 1011.6
20260509104003 47 194 0.0 3.0 0.02 0.22 0.11 98 1011.7
20260509103524 47 0 0.0 0.0 0.02 0.22 0.11 98 1011.7
20260509103004 47 0 0.0 0.0 0.02 0.22 0.11 98 1011.5
20260509102503 47 136 0.0 1.0 0.02 0.22 0.11 98 1011.5
20260509102003 47 136 0.0 1.0 0.02 0.22 0.11 98 1011.6
20260509101504 47 136 0.0 1.0 0.02 0.22 0.11 98 1011.6
20260509101024 47 136 0.0 1.0 0.01 0.21 0.10 98 1011.8
20260509100503 47 136 0.0 1.0 0.01 0.21 0.10 98 1012.0
20260509100004 47 136 1.0 1.0 0.01 0.21 0.10 98 1012.2
20260509095503 47 136 0.0 1.0 0.01 0.21 0.10 98 1012.2
20260509095003 47 136 0.0 1.0 0.01 0.21 0.10 98 1012.0
20260509094503 47 0 0.0 0.0 0.01 0.21 0.10 98 1011.8
20260509094024 47 0 0.0 0.0 0.00 0.20 0.09 98 1011.9
20260509093503 47 0 0.0 0.0 0.00 0.20 0.09 98 1012.0
20260509093003 47 0 0.0 0.0 0.00 0.20 0.09 98 1011.9
20260509092504 47 136 0.0 1.0 0.00 0.20 0.09 98 1011.8
20260509092004 47 136 0.0 1.0 0.00 0.20 0.09 97 1011.9
20260509091503 47 136 0.0 1.0 0.01 0.20 0.09 98 1012.0
20260509091003 47 0 0.0 0.0 0.01 0.20 0.09 98 1012.0
20260509090503 47 178 0.0 4.0 0.01 0.20 0.09 98 1012.0
20260509090024 47 178 0.0 4.0 0.01 0.20 0.09 98 1012.0
20260509085503 47 0 0.0 0.0 0.01 0.20 0.09 98 1012.0
20260509085003 47 0 0.0 0.0 0.01 0.20 0.09 98 1012.1
20260509084503 47 0 0.0 0.0 0.01 0.21 0.09 98 1012.2
20260509084003 47 0 0.0 0.0 0.01 0.21 0.09 98 1012.2
20260509083503 47 0 0.0 0.0 0.01 0.21 0.09 98 1012.3
20260509083003 47 0 0.0 0.0 0.02 0.21 0.09 98 1012.3
20260509082503 47 0 0.0 0.0 0.02 0.21 0.09 98 1012.5
20260509082003 47 0 0.0 0.0 0.03 0.21 0.09 97 1012.5
20260509081503 47 0 0.0 0.0 0.02 0.20 0.08 97 1012.5
20260509081024 47 0 0.0 0.0 0.02 0.20 0.08 97 1012.5
20260509080503 47 0 0.0 0.0 0.03 0.20 0.08 97 1012.3
20260509080025 47 0 0.0 0.0 0.03 0.20 0.08 97 1012.5
20260509075503 47 0 0.0 0.0 0.04 0.20 0.08 97 1012.5
20260509075003 47 0 0.0 0.0 0.04 0.20 0.08 97 1012.4
20260509074503 47 0 0.0 0.0 0.05 0.20 0.08 97 1012.2
20260509074004 47 0 0.0 0.0 0.05 0.20 0.08 97 1012.3
20260509073503 47 0 0.0 0.0 0.06 0.20 0.08 97 1012.3
20260509073003 47 0 0.0 0.0 0.05 0.19 0.07 97 1012.6
20260509072524 47 0 0.0 0.0 0.06 0.19 0.07 97 1012.6
20260509072004 47 0 0.0 0.0 0.05 0.18 0.06 97 1012.7
20260509071503 47 0 0.0 0.0 0.05 0.18 0.06 97 1012.8
20260509071003 47 0 0.0 0.0 0.05 0.18 0.06 97 1012.7
20260509070504 47 0 0.0 0.0 0.04 0.17 0.05 97 1012.7
20260509070004 47 0 0.0 0.0 0.04 0.17 0.05 97 1012.7
20260509065504 47 0 0.0 0.0 0.03 0.16 0.04 97 1012.6
20260509065003 47 0 0.0 0.0 0.03 0.16 0.04 97 1012.7
20260509064503 47 0 0.0 0.0 0.02 0.15 0.03 97 1012.8
20260509064003 46 0 0.0 0.0 0.02 0.15 0.03 97 1012.9
20260509063504 46 0 0.0 0.0 0.02 0.14 0.02 97 1013.1
20260509063003 46 0 0.0 0.0 0.02 0.14 0.02 97 1013.2
20260509062503 46 0 0.0 0.0 0.01 0.13 0.02 96 1013.3
20260509062003 46 0 0.0 0.0 0.01 0.13 0.01 96 1013.4
20260509061504 46 0 0.0 0.0 0.01 0.13 0.01 96 1013.4
20260509061024 46 0 0.0 0.0 0.01 0.13 0.01 96 1013.4
20260509060504 46 0 0.0 0.0 0.01 0.13 0.01 96 1013.4
20260509060004 46 0 0.0 0.0 0.01 0.13 0.01 96 1013.3
20260509055503 46 0 0.0 0.0 0.01 0.13 0.01 95 1013.3
20260509055003 46 0 0.0 0.0 0.01 0.13 0.01 95 1013.3
20260509054503 46 0 0.0 0.0 0.01 0.13 0.01 95 1013.3
20260509054003 46 0 0.0 0.0 0.01 0.13 0.01 94 1013.2
20260509053503 47 0 0.0 0.0 0.00 0.12 0.00 95 1012.8
20260509053003 47 0 0.0 0.0 0.00 0.12 0.00 95 1012.7
20260509052506 47 0 0.0 0.0 0.00 0.12 0.00 95 1012.5
20260509052005 47 0 0.0 0.0 0.00 0.12 0.00 95 1012.4
20260509051505 47 0 0.0 0.0 0.00 0.12 0.00 95 1012.5
20260509051005 47 0 0.0 0.0 0.00 0.12 0.00 95 1012.7
20260509050526 47 0 0.0 0.0 0.00 0.12 0.00 95 1012.7
20260509050005 47 0 0.0 0.0 0.00 0.12 0.00 95 1012.8
20260509045505 47 0 0.0 0.0 0.00 0.13 0.00 95 1012.8
20260509045005 47 0 0.0 0.0 0.00 0.14 0.00 95 1012.8
20260509044526 47 0 0.0 0.0 0.00 0.14 0.00 94 1012.7
20260509044005 47 0 0.0 0.0 0.00 0.15 0.00 94 1012.8
20260509043506 47 0 0.0 0.0 0.00 0.16 0.00 95 1012.7
20260509043005 47 0 0.0 0.0 0.00 0.17 0.00 95 1012.8
20260509042505 47 0 0.0 0.0 0.00 0.18 0.00 95 1013.0
20260509042026 47 0 0.0 0.0 0.00 0.19 0.00 95 1012.9
20260509041505 47 0 0.0 0.0 0.00 0.20 0.00 94 1012.9
20260509041006 47 0 0.0 0.0 0.00 0.22 0.00 95 1013.1
20260509040505 46 0 0.0 0.0 0.00 0.25 0.00 95 1013.1
20260509040006 46 0 0.0 0.0 0.00 0.26 0.00 95 1013.1
20260509035526 46 0 0.0 0.0 0.00 0.27 0.26 95 1013.2
20260509035006 46 0 0.0 0.0 0.00 0.28 0.26 95 1013.3
20260509034505 46 0 0.0 0.0 0.00 0.29 0.26 94 1013.1
20260509034005 46 0 0.0 0.0 0.00 0.31 0.26 95 1013.1
20260509033505 46 0 0.0 0.0 0.00 0.32 0.26 94 1013.2
20260509033005 46 0 0.0 0.0 0.00 0.33 0.26 94 1013.3
20260509032505 46 0 0.0 0.0 0.00 0.33 0.26 93 1013.2
20260509032005 46 0 0.0 0.0 0.00 0.33 0.26 93 1013.0
20260509031506 46 0 0.0 0.0 0.00 0.33 0.26 93 1013.1
20260509031005 46 0 0.0 0.0 0.00 0.33 0.26 93 1013.1
20260509030505 46 0 0.0 0.0 0.00 0.33 0.26 92 1013.1
20260509030005 46 0 0.0 0.0 0.00 0.33 0.26 92 1013.0
20260509025505 46 0 0.0 0.0 0.00 0.33 0.26 92 1012.9
20260509025005 46 0 0.0 0.0 0.00 0.33 0.26 92 1013.1
20260509024505 46 0 0.0 0.0 0.00 0.33 0.26 92 1012.9
20260509024005 47 0 0.0 0.0 0.00 0.33 0.26 92 1012.9
20260509023526 47 0 0.0 0.0 0.00 0.33 0.26 92 1012.8
20260509023026 47 0 0.0 0.0 0.00 0.33 0.26 92 1012.8
20260509022505 47 0 0.0 0.0 0.00 0.33 0.26 92 1013.0
20260509022026 47 0 0.0 0.0 0.00 0.33 0.26 91 1013.0
20260509021505 47 0 0.0 0.0 0.00 0.33 0.26 91 1013.0
20260509021005 47 0 0.0 0.0 0.00 0.33 0.26 91 1013.1
20260509020026 48 0 0.0 0.0 0.00 0.33 0.26 90 1013.2
20260509015533 48 0 0.0 0.0 0.00 0.33 0.26 90 1013.1
20260509015005 48 0 0.0 0.0 0.00 0.33 0.26 90 1012.8
20260509014505 48 0 0.0 0.0 0.00 0.33 0.26 90 1012.7
20260509014005 48 0 0.0 0.0 0.00 0.33 0.26 89 1012.7
20260509013505 48 0 0.0 0.0 0.00 0.33 0.26 90 1012.8
20260509013005 48 0 0.0 0.0 0.00 0.33 0.26 90 1012.9
20260509012526 48 0 0.0 0.0 0.00 0.33 0.26 91 1012.8
20260509012005 48 0 0.0 0.0 0.00 0.33 0.26 90 1012.9
20260509011526 48 0 0.0 0.0 0.00 0.33 0.26 91 1012.8
20260509011005 48 0 0.0 0.0 0.00 0.33 0.26 92 1012.7
20260509010505 48 0 0.0 0.0 0.00 0.33 0.26 91 1012.6
20260509010006 48 0 0.0 0.0 0.00 0.33 0.26 91 1012.5
20260509005505 48 0 0.0 0.0 0.00 0.33 0.26 90 1012.5
20260509005005 48 0 0.0 0.0 0.00 0.33 0.26 91 1012.3
20260509004505 48 0 0.0 0.0 0.00 0.33 0.26 91 1012.2
20260509004004 48 0 0.0 0.0 0.00 0.33 0.26 91 1012.1
20260509003504 49 0 0.0 0.0 0.00 0.33 0.26 90 1012.1
20260509003006 49 0 0.0 0.0 0.00 0.33 0.26 90 1012.0
20260509002505 49 0 0.0 0.0 0.00 0.33 0.26 90 1012.1
20260509002026 49 0 0.0 0.0 0.00 0.33 0.26 89 1012.1
20260509001505 49 0 0.0 0.0 0.00 0.33 0.26 89 1012.1
20260509001026 49 0 0.0 0.0 0.00 0.33 0.26 89 1012.1
20260509000505 49 0 0.0 0.0 0.00 0.33 0.26 89 1012.3
20260509000005 49 0 0.0 0.0 0.00 0.33 0.26 88 1012.3
20260508235526 49 0 0.0 0.0 0.00 0.33 0.26 88 1012.4
20260508235005 49 0 0.0 0.0 0.00 0.33 0.26 88 1012.2
20260508234525 49 0 0.0 0.0 0.00 0.33 0.26 87 1012.2
20260508234004 49 0 0.0 0.0 0.00 0.33 0.26 87 1012.1
20260508233505 50 0 0.0 0.0 0.00 0.33 0.26 87 1012.0
20260508233005 50 0 0.0 0.0 0.00 0.33 0.26 87 1012.0
20260508232504 50 0 0.0 0.0 0.00 0.33 0.26 86 1011.9
20260508232005 50 0 0.0 0.0 0.00 0.33 0.26 86 1011.7
20260508231505 50 0 0.0 0.0 0.00 0.33 0.26 87 1011.7
20260508231005 50 172 0.0 1.0 0.00 0.33 0.26 87 1011.8
20260508230504 50 172 0.0 1.0 0.00 0.33 0.26 88 1011.9
20260508230005 50 172 0.0 1.0 0.00 0.33 0.26 88 1012.0
20260508225504 50 172 0.0 3.0 0.00 0.33 0.26 88 1011.9
20260508225004 50 172 0.0 3.0 0.00 0.33 0.26 87 1012.0
20260508224504 50 172 0.0 1.0 0.00 0.33 0.26 87 1011.9
20260508224004 50 171 0.0 1.0 0.00 0.33 0.26 85 1011.9
20260508223525 50 166 0.0 4.0 0.00 0.33 0.26 85 1011.9
20260508223004 50 167 0.0 6.0 0.00 0.33 0.26 85 1011.8
20260508222525 50 172 1.0 6.0 0.01 0.33 0.26 86 1011.9
20260508222004 51 178 0.0 6.0 0.01 0.33 0.26 86 1012.0
20260508221504 50 184 0.0 1.0 0.01 0.33 0.26 86 1012.0
20260508221005 51 183 0.0 1.0 0.01 0.33 0.26 85 1011.9
20260508220504 50 198 0.0 4.0 0.01 0.33 0.26 84 1012.0
20260508220025 50 171 1.0 6.0 0.01 0.33 0.26 86 1012.2
20260508215525 50 160 3.0 10.0 0.01 0.33 0.26 85 1012.0
20260508215004 50 164 3.0 10.0 0.01 0.33 0.26 86 1012.0
20260508214504 50 174 1.0 7.0 0.01 0.33 0.26 87 1012.0
20260508214026 50 181 1.0 9.0 0.01 0.33 0.26 90 1012.0
20260508213504 50 189 1.0 9.0 0.01 0.33 0.26 89 1012.1
20260508213004 50 188 1.0 6.0 0.01 0.33 0.26 88 1012.2
20260508212504 51 188 1.0 4.0 0.00 0.32 0.25 88 1012.3
20260508212025 51 193 1.0 4.0 0.00 0.32 0.25 87 1012.3
20260508211504 52 188 0.0 4.0 0.00 0.32 0.25 85 1012.3
20260508211004 52 198 1.0 4.0 0.00 0.32 0.25 83 1012.2
20260508210504 52 207 1.0 4.0 0.00 0.32 0.25 82 1012.2
20260508210005 53 212 0.0 4.0 0.00 0.32 0.25 79 1012.1
20260508205504 53 226 0.0 4.0 0.00 0.32 0.25 75 1012.1
20260508205004 54 211 0.0 4.0 0.00 0.32 0.25 72 1012.0
20260508204504 54 209 0.0 3.0 0.00 0.32 0.25 73 1012.0
20260508204005 55 228 1.0 3.0 0.00 0.32 0.25 68 1011.9
20260508203504 56 221 1.0 6.0 0.00 0.32 0.25 63 1012.0
20260508203004 56 241 1.0 7.0 0.00 0.32 0.25 67 1012.0
20260508202504 56 230 3.0 7.0 0.00 0.32 0.25 68 1012.0
20260508202004 56 209 1.0 6.0 0.00 0.32 0.25 68 1012.1
20260508201504 56 217 1.0 6.0 0.00 0.32 0.25 69 1012.1